Regional Weather Roundup
Issued by NWS Charleston, SC

Current Version | Previous Version | Text Only | Print | Product List | Glossary Off
Versions: 1 2 3 4 5 6 7 8 9 10 11 12 13 14 15 16 17 18 19 20 21 22 23 24 25 26 27 28 29 30 31 32 33 34 35 36 37 38 39 40 41 42 43 44 45 46 47 48 49 50

000
ASUS42 KCHS 241725
RWRCHS

REGIONAL WEATHER ROUNDUP
NATIONAL WEATHER SERVICE CHARLESTON SC
100 PM EDT THU APR 24 2014

NOTE: "FAIR" INDICATES FEW OR NO CLOUDS BELOW 12,000 FEET WITH NO
SIGNIFICANT WEATHER AND/OR OBSTRUCTIONS TO VISIBILITY.

NOT ALL STATIONS ARE QUALITY CONTROLLED BY THE NATIONAL
WEATHER SERVICE. USE DATA WITH CAUTION...ESPECIALLY
DEWPOINT OBSERVATIONS.

SCZ027-030-031-034>040-042>050-241800-
...SOUTH CAROLINA...

CITY           SKY/WX    TMP DP  RH WIND       PRES   REMARKS
N CHARLESTON   PTSUNNY   77  51  40 E14       30.06F
WATERFRONT PRK   N/A     66 N/A N/A E16G22      N/A
FORT JOHNSON     N/A     66  55  68 E7G15     30.12S
MOUNT PLEASANT LGT RAIN  72  54  53 E7        30.07S
JOHNS ISLAND   SUNNY     72  55  56 E18       30.07S
PINOPOLIS        N/A     72  50  46 E7        29.99F
MONCKS CORNER  FAIR      75  54  46 SE8       30.07F
SUMMERVILLE    NOT AVBL
BEAUFORT MCAS  MOSUNNY   76  56  49 S15G21    30.04F
BEAUFORT ARPT  FAIR      72  59  64 E14       30.04F HAZE
HILTON HEAD IS SUNNY     70  59  68 NE14G23   30.06S
GEORGETOWN     NOT AVBL
WALTERBORO     SUNNY     77  57  50 E6        30.04F
ORANGEBURG     SUNNY     72  41  32 VRB6      30.07F
BARNWELL       FAIR      75  46  35 S7        30.05F
AIKEN          FAIR      73  46  38 SE8       30.09F
MANNING        FAIR      75  45  33 E7        30.07F
KINGSTREE      NOT AVBL
COLUMBIA       SUNNY     73  40  30 E8        30.07F
SUMTER         SUNNY     71  40  32 E8        30.07F
FLORENCE       SUNNY     70  38  31 E6        30.09F
MYRTLE BEACH   SUNNY     66  43  42 E14       30.10F
N MYRTLE BEACH SUNNY     67  46  47 E13       30.10F

$$

GAZ063-065-086>088-099>101-113>116-118-119-134-136>141-150-241800-
...GEORGIA...

CITY           SKY/WX    TMP DP  RH WIND       PRES   REMARKS
SAVANNAH ARPT  MOSUNNY   81  62  52 E13       30.02F
HUNTER AAF     SUNNY     77  63  61 E14       30.01S
FORT STEWART   SUNNY     83  60  46 VRB1      29.99F
STATESBORO     NOT AVBL
SYLVANIA       SUNNY     80  57  45 CALM      30.03F
CLAXTON        FAIR      81  55  41 CALM      30.01F
THOMSON        SUNNY     76  48  37 E3        30.08F
AUGUSTA-BUSH   SUNNY     75  43  31 SE8       30.04F
AUGUSTA-DANIEL SUNNY     75  39  27 VRB3      30.05F
SWAINSBORO     FAIR      79  54  41 CALM      30.02F
VIDALIA        SUNNY     81  50  34 CALM      30.02F
ALMA           MOSUNNY   82  54  37 S5        30.00F
WAYCROSS       NOT AVBL
JESUP          FAIR      81  55  41 NW3       30.00F
BRUNSWICK      MOSUNNY   82  59  44 E3        30.01F
SAINT SIMONS   SUNNY     76  65  68 E10       30.02F

$$

SCZ027-028-034-036>038-045-046-048>050-GAZ119-141-241800-
...LAKE AND SUPPLEMENTAL COASTAL OBSERVATIONS...

STATION/POSITION TIME  TEMP    WIND        PRES    WAVE   SWELL
                       AIR SEA DIR/SP/G            HT/PER HT/PER/DIR
                 (UTC) (F)     (DEG/KT/KT) (MB)    (FT/S) (FT/S/D)
UPR LAKE MARION  NOT AVBL
WINYAH BAY       1700   62      60/ 14     1019.0S
LAKE MURRAY      1700   67      70/  5/  7 1018.3S
ACE BASIN NERRS  1700   76      80/  5     1018.0S
FORT PULASKI     1700   66 61   70/ 16/ 18 1017.6F
SAPELO ISLAND    1700   80     100/  7     1017.0S

$$

ANZ835-935-AMZ111-154-330-350-352-354-374-450-454-472-241800-
...C-MAN AND BUOY OBSERVATIONS...

STATION/POSITION TIME  TEMP    WIND        PRES    WAVE   SWELL
                       AIR SEA DIR/SP/G            HT/PER HT/PER/DIR
                 (UTC) (F)     (DEG/KT/KT) (MB)    (FT/S) (FT/S/D)
FOLLY BEACH CMAN 1700   64      60/ 20/ 23 1018.6F
BUOY 41004       1700   67 71   50/ 17/ 19 1017.2F   4/ 5   2/ 8
BUOY 41008       1700   71 70   80/  6/  6 1016.5F   1/ 8   2/110/ 8
5E ST. MARYS GA  1600      69                N/A     1/ 8
FRYING PAN BUOY  1700   63 68   70/ 16/ 19 1018.8F   4/ 5   2/ 80/ 8
BUOY 41025       NOT AVBL
CAPE LOOKOUT NC  1700   57      50/  9/ 10 1019.8F
BUOY 41002       NOT AVBL
BUOY 41010       1700   74 76  140/  8/  8 1017.7F   2/ 8   2/ 80/ 8
BUOY 41012       NOT AVBL
ST AUGUSTINE FL  1700   69     120/  9/ 10 1017.0F
CAPERS NEARSHORE NOT AVBL
FRIPP NEARSHORE  1600   66      80/ 17/ 23   N/A


$$


USA.gov is the U.S. government's official web portal to all federal, state and local government web resources and services.